Location: Pic du Midi - T1M
(42.9366°N, 0.1426°E)
Time: 22:38:04
(UTC+01:00)

X-37B - Pass Details

Date: 22 June 2021
Orbit: 383 x 392 km, 45.0° (Epoch: 01 July)

Event Time Altitude Azimuth Distance (km) Brightness Sun altitude
Exits shadow 04:15:24 - 279° (W) 1,896 3.7 -10.0°
Reaches altitude 10° 04:16:45 10° 269° (W) 1,397 3.0 -9.9°
Maximum altitude 04:19:24 25° 211° (SSW) 805 1.6 -9.5°
Drops below altitude 10° 04:22:05 10° 153° (SSE) 1,395 3.2 -9.2°
Sets 04:24:20 0° 140° (SE) 2,246 4.4 -8.9°
